2016-024C

Last updated on Mon Apr 11 2016 18:35:57 GMT+0100 (British Summer Time)

1 41454U 16024C 16102.29171035 .04652142 11817-4 27837-2 0 9994 2 41454 51.6490 31.0052 0068261 56.0250 304.7252 16.12133058 392

Satellite not in orbit